EN

Hourly Weather Lahul's'k

Today, 25 July, Sunday

Time Temperature Precipitation Wind Pressure Humidity
00:00 +21°C° 0 mm 1 mps 744 mmHg 67%
01:00 +20°C° 0 mm 1 mps 744 mmHg 68%
02:00 +20°C° 0 mm 1 mps 744 mmHg 70%
03:00 +20°C° 0 mm 1 mps 744 mmHg 71%
04:00 +20°C° 0 mm 1 mps 744 mmHg 72%
05:00 +20°C° 0 mm 1 mps 744 mmHg 73%
06:00 +20°C° 0 mm 1 mps 744 mmHg 72%
07:00 +21°C° 0 mm 1 mps 744 mmHg 71%
08:00 +20°C° 0 mm 0 mps 744 mmHg 70%
09:00 +22°C° 0 mm 1 mps 745 mmHg 68%
10:00 +23°C° 0 mm 1 mps 745 mmHg 65%
11:00 +24°C° 0 mm 1 mps 745 mmHg 63%
12:00 +25°C° 0 mm 1 mps 745 mmHg 58%
13:00 +26°C° 0 mm 2 mps 745 mmHg 54%
14:00 +27°C° 0 mm 2 mps 745 mmHg 49%
15:00 +27°C° 0 mm 2 mps 745 mmHg 51%
16:00 +26°C° 0 mm 3 mps 745 mmHg 54%
17:00 +26°C° 0 mm 3 mps 745 mmHg 56%
18:00 +24°C° 0 mm 3 mps 745 mmHg 60%
19:00 +23°C° 0 mm 2 mps 745 mmHg 64%
20:00 +21°C° 0 mm 2 mps 745 mmHg 68%
21:00 +20°C° 0 mm 2 mps 745 mmHg 69%
22:00 +20°C° 0 mm 2 mps 745 mmHg 70%
23:00 +19°C° 0 mm 3 mps 745 mmHg 70%

Tomorrow, 26 July, Monday

Time Temperature Precipitation Wind Pressure Humidity
00:00 +19°C° 0 mm 3 mps 745 mmHg 72%
01:00 +18°C° 0 mm 3 mps 745 mmHg 74%
02:00 +17°C° 0 mm 2 mps 745 mmHg 76%
03:00 +18°C° 0 mm 3 mps 745 mmHg 74%
04:00 +18°C° 0 mm 3 mps 745 mmHg 73%
05:00 +18°C° 0 mm 3 mps 745 mmHg 71%
06:00 +19°C° 0 mm 3 mps 745 mmHg 69%
07:00 +20°C° 0 mm 3 mps 745 mmHg 67%
08:00 +21°C° 0 mm 3 mps 745 mmHg 65%
09:00 +24°C° 0 mm 3 mps 745 mmHg 60%
10:00 +26°C° 0 mm 4 mps 745 mmHg 55%
11:00 +28°C° 0 mm 4 mps 746 mmHg 49%
12:00 +28°C° 0 mm 4 mps 745 mmHg 48%
13:00 +29°C° 0 mm 4 mps 745 mmHg 47%
14:00 +29°C° 0 mm 4 mps 745 mmHg 46%
15:00 +29°C° 0 mm 4 mps 745 mmHg 47%
16:00 +29°C° 0 mm 3 mps 745 mmHg 49%
17:00 +29°C° 0 mm 3 mps 744 mmHg 51%
18:00 +27°C° 0 mm 3 mps 744 mmHg 56%
19:00 +26°C° 0 mm 3 mps 744 mmHg 61%
20:00 +24°C° 0 mm 3 mps 744 mmHg 67%
21:00 +22°C° 0 mm 4 mps 744 mmHg 67%
22:00 +22°C° 0 mm 4 mps 745 mmHg 68%
23:00 +21°C° 0 mm 4 mps 745 mmHg 69%

Day after tomorrow, 27 July, Tuesday

Time Temperature Precipitation Wind Pressure Humidity
00:00 +21°C° 0 mm 4 mps 745 mmHg 70%
01:00 +20°C° 0 mm 4 mps 744 mmHg 72%
02:00 +19°C° 0 mm 4 mps 744 mmHg 74%
03:00 +19°C° 0 mm 4 mps 744 mmHg 73%
04:00 +19°C° 0 mm 4 mps 744 mmHg 72%
05:00 +19°C° 0 mm 4 mps 744 mmHg 72%
06:00 +21°C° 0 mm 4 mps 744 mmHg 68%
07:00 +22°C° 0 mm 5 mps 744 mmHg 64%
08:00 +25°C° 0 mm 5 mps 744 mmHg 60%
09:00 +27°C° 0 mm 6 mps 744 mmHg 54%
10:00 +29°C° 0 mm 6 mps 743 mmHg 49%
11:00 +30°C° 0 mm 6 mps 743 mmHg 43%
12:00 +32°C° 0 mm 7 mps 743 mmHg 43%
13:00 +32°C° 0 mm 7 mps 743 mmHg 43%
14:00 +33°C° 0 mm 7 mps 743 mmHg 43%
15:00 +32°C° 0 mm 6 mps 743 mmHg 49%
16:00 +29°C° 0 mm 6 mps 743 mmHg 55%
17:00 +28°C° 0 mm 5 mps 742 mmHg 61%
18:00 +26°C° 1.2 mm 5 mps 742 mmHg 69%
19:00 +25°C° 1.2 mm 4 mps 742 mmHg 77%
20:00 +24°C° 1.2 mm 3 mps 742 mmHg 86%
21:00 +22°C° 0.1 mm 3 mps 742 mmHg 86%
22:00 +21°C° 0.1 mm 3 mps 742 mmHg 87%
23:00 +21°C° 0.1 mm 3 mps 742 mmHg 88%

28 July, Wednesday

Time Temperature Precipitation Wind Pressure Humidity
00:00 +21°C° 0.8 mm 3 mps 742 mmHg 89%
01:00 +21°C° 0.8 mm 3 mps 741 mmHg 90%
02:00 +20°C° 0.8 mm 3 mps 741 mmHg 92%
03:00 +20°C° 0 mm 3 mps 741 mmHg 94%
04:00 +19°C° 0 mm 3 mps 741 mmHg 95%
05:00 +19°C° 0 mm 3 mps 742 mmHg 97%
06:00 +20°C° 0.1 mm 3 mps 742 mmHg 91%
07:00 +21°C° 0.1 mm 3 mps 742 mmHg 85%
08:00 +24°C° 0.1 mm 3 mps 742 mmHg 79%
09:00 +25°C° 0 mm 3 mps 742 mmHg 72%
10:00 +26°C° 0 mm 3 mps 743 mmHg 65%
11:00 +28°C° 0 mm 2 mps 743 mmHg 58%
12:00 +29°C° 0 mm 2 mps 743 mmHg 54%
13:00 +29°C° 0 mm 2 mps 742 mmHg 51%
14:00 +30°C° 0 mm 2 mps 742 mmHg 48%
15:00 +30°C° 0 mm 2 mps 742 mmHg 49%
16:00 +30°C° 0 mm 2 mps 742 mmHg 50%
17:00 +30°C° 0 mm 2 mps 742 mmHg 51%
18:00 +28°C° 0 mm 2 mps 742 mmHg 56%
19:00 +26°C° 0 mm 1 mps 741 mmHg 61%
20:00 +25°C° 0 mm 1 mps 741 mmHg 67%
21:00 +24°C° 0 mm 1 mps 741 mmHg 68%
22:00 +23°C° 0 mm 1 mps 742 mmHg 69%
23:00 +23°C° 0 mm 1 mps 742 mmHg 69%

29 July, Thursday

Time Temperature Precipitation Wind Pressure Humidity
00:00 +23°C° 0 mm 1 mps 741 mmHg 71%
01:00 +21°C° 0 mm 2 mps 741 mmHg 73%
02:00 +21°C° 0 mm 2 mps 741 mmHg 74%
03:00 +21°C° 0 mm 2 mps 741 mmHg 77%
04:00 +20°C° 0 mm 2 mps 741 mmHg 79%
05:00 +21°C° 0 mm 1 mps 741 mmHg 82%
06:00 +23°C° 0.1 mm 2 mps 741 mmHg 79%
07:00 +24°C° 0.1 mm 2 mps 741 mmHg 76%
08:00 +26°C° 0.1 mm 2 mps 741 mmHg 72%
09:00 +27°C° 0 mm 2 mps 741 mmHg 67%
10:00 +29°C° 0 mm 2 mps 741 mmHg 62%
11:00 +30°C° 0 mm 2 mps 741 mmHg 57%
12:00 +31°C° 0 mm 2 mps 741 mmHg 54%
13:00 +32°C° 0 mm 2 mps 741 mmHg 51%
14:00 +34°C° 0 mm 3 mps 741 mmHg 48%
15:00 +33°C° 0.1 mm 3 mps 740 mmHg 50%
16:00 +33°C° 0.1 mm 3 mps 740 mmHg 53%
17:00 +31°C° 0.1 mm 3 mps 739 mmHg 55%
18:00 +30°C° 0.2 mm 3 mps 740 mmHg 61%
19:00 +28°C° 0.2 mm 3 mps 740 mmHg 67%
20:00 +26°C° 0.2 mm 3 mps 740 mmHg 72%
21:00 +25°C° 0 mm 3 mps 740 mmHg 75%
22:00 +24°C° 0 mm 3 mps 740 mmHg 78%
23:00 +21°C° 0 mm 3 mps 740 mmHg 80%

30 July, Friday

Time Temperature Precipitation Wind Pressure Humidity
00:00 +21°C° 0 mm 3 mps 741 mmHg 81%
01:00 +21°C° 0 mm 3 mps 741 mmHg 82%
02:00 +20°C° 0 mm 3 mps 741 mmHg 82%
03:00 +20°C° 0 mm 2 mps 741 mmHg 84%
04:00 +20°C° 0 mm 2 mps 741 mmHg 87%
05:00 +20°C° 0 mm 2 mps 741 mmHg 89%
06:00 +23°C° 0 mm 2 mps 741 mmHg 82%
07:00 +24°C° 0 mm 2 mps 741 mmHg 76%
08:00 +26°C° 0 mm 2 mps 741 mmHg 69%
09:00 +28°C° 0 mm 2 mps 741 mmHg 63%
10:00 +29°C° 0 mm 2 mps 741 mmHg 56%
11:00 +30°C° 0 mm 2 mps 741 mmHg 50%
12:00 +31°C° 0 mm 2 mps 741 mmHg 47%
13:00 +32°C° 0 mm 1 mps 741 mmHg 43%
14:00 +33°C° 0 mm 1 mps 741 mmHg 40%
15:00 +33°C° 0 mm 1 mps 741 mmHg 40%
16:00 +33°C° 0 mm 1 mps 740 mmHg 40%
17:00 +31°C° 0 mm 0 mps 740 mmHg 41%
18:00 +31°C° 0 mm 1 mps 740 mmHg 47%
19:00 +29°C° 0 mm 1 mps 740 mmHg 53%
20:00 +27°C° 0 mm 2 mps 740 mmHg 59%
21:00 +26°C° 0 mm 2 mps 739 mmHg 62%
22:00 +25°C° 0 mm 2 mps 739 mmHg 64%
23:00 +24°C° 0 mm 2 mps 739 mmHg 67%
Show more